Wind_Speed
13 13 12 13 14 14 14 15 13 11 10 11 11 11 10 10 9 9 9 9 9 9 10 9 8 7 6 5 5 4 4 4 5 4 4 3 3 3 3 3 4 3 2 2 2 3 2 2 3
13 13 13 13 14 14 15 15 14 13 12 12 12 11 11 10 9 9 9 9 9 9 10 9 8 8 6 5 4 4 4 4 4 4 3 4 3 3 3 3 3 2 2 2 2 2 2 2 2
13 13 13 14 14 14 15 15 15 14 14 13 12 11 11 10 10 10 9 10 10 9 9 9 8 8 7 6 5 4 4 4 4 4 3 3 3 3 3 3 2 2 2 2 2 2 2 3 3
13 14 13 14 14 15 14 15 15 14 14 13 12 11 10 11 11 10 9 10 10 10 10 9 8 8 7 6 6 5 4 4 3 3 3 3 3 2 2 2 2 2 1 1 1 1 2 3 4
13 13 14 14 15 15 15 16 15 14 13 13 12 11 10 11 11 10 10 10 10 10 9 9 8 7 6 6 6 5 5 4 3 3 3 3 2 2 2 2 2 1 0 0 1 1 3 4 3
12 12 13 14 15 14 14 15 15 14 13 13 11 11 10 11 11 10 10 10 10 9 9 8 8 8 7 6 5 5 5 4 3 3 3 3 3 2 2 2 1 1 2 2 2 2 4 3 3
11 13 14 13 14 13 13 13 14 13 13 12 12 12 11 11 11 10 10 10 10 9 9 8 8 8 7 7 6 6 5 4 4 3 3 2 2 2 1 1 1 1 1 2 3 3 3 3 3
11 13 13 12 12 12 13 13 13 14 13 13 13 13 12 12 12 11 10 10 10 10 9 8 8 8 7 6 7 6 5 4 3 3 3 2 1 1 1 1 1 1 1 1 2 2 2 2 2
13 13 13 13 11 11 12 12 13 14 14 13 13 13 13 12 12 12 11 10 10 9 9 8 8 8 7 7 7 6 5 4 4 3 3 2 1 1 1 1 1 1 2 2 1 0 1 1 1
12 11 12 13 12 12 12 12 13 14 14 14 14 14 13 13 13 13 12 11 10 9 9 9 9 8 8 7 6 6 5 4 4 3 3 2 1 1 1 1 1 1 1 1 1 1 1 1 1
10 10 12 13 12 12 11 12 12 13 13 13 13 13 14 13 13 13 12 11 10 10 9 9 9 8 8 7 6 5 5 5 4 3 2 2 2 1 1 1 1 0 1 0 0 1 1 1 1
10 10 11 12 12 12 11 11 12 13 13 13 14 14 13 13 13 12 12 11 10 9 9 9 8 8 8 7 7 6 6 6 4 3 2 1 1 1 1 2 1 1 1 1 1 1 2 2 2
9 9 10 10 11 11 11 11 11 12 13 13 13 14 14 13 13 12 12 12 11 10 9 8 8 7 7 7 7 6 6 6 5 4 2 2 2 1 1 1 1 1 1 2 1 1 2 3 3
7 8 8 8 10 10 10 10 10 12 13 13 13 14 13 13 13 12 12 12 11 11 10 9 8 7 6 6 6 6 6 5 4 3 3 2 2 1 1 1 1 1 1 2 2 1 2 2 3
5 6 6 6 8 8 9 10 11 11 12 13 12 13 13 12 13 12 12 11 10 10 10 10 8 7 7 6 6 5 5 5 4 3 2 2 2 2 1 2 2 2 3 3 2 2 2 3 4
5 5 5 6 7 8 9 10 11 11 12 13 12 13 13 13 12 12 12 11 10 9 9 10 8 7 7 7 6 5 5 4 4 4 3 2 2 2 2 2 3 3 3 3 2 3 3 4 4
2 4 4 5 5 7 9 11 11 12 11 12 13 13 13 13 12 12 12 10 9 10 9 9 8 8 7 7 7 6 5 4 4 4 4 4 3 3 3 3 3 3 4 3 4 4 5 6 6
2 2 3 3 4 6 8 9 11 12 12 12 12 12 13 13 13 13 11 10 9 9 9 9 8 7 7 7 7 6 5 5 5 5 5 5 4 3 3 4 4 4 5 5 5 6 7 7 7
2 3 2 3 3 5 7 8 9 9 11 12 12 13 13 13 13 13 11 10 9 9 8 9 8 8 7 7 7 7 7 6 6 6 6 5 5 4 4 5 5 6 6 6 7 8 8 8 7
3 4 4 4 5 6 7 8 8 8 9 10 12 13 13 13 13 12 11 10 10 9 9 9 8 8 8 8 8 8 8 7 7 7 7 7 6 6 6 7 7 7 7 8 7 8 8 9 9
5 5 5 6 6 7 9 9 7 9 9 9 11 12 13 13 13 12 12 12 11 10 9 9 9 8 7 7 8 8 8 8 8 8 8 8 7 7 8 8 8 8 8 7 7 8 9 10 10
7 7 7 6 6 9 9 11 9 10 9 9 10 13 15 15 13 12 12 13 12 11 10 10 10 9 8 8 8 9 9 9 9 9 9 9 8 8 8 9 10 10 10 9 10 10 10 11 11
9 8 8 8 9 11 12 12 11 11 9 9 11 13 14 15 15 13 13 13 13 12 11 11 11 10 9 9 9 10 11 10 10 10 10 10 10 10 10 10 11 11 11 11 11 11 11 11 12
11 11 11 11 12 12 13 13 12 12 10 10 11 12 14 15 14 14 14 14 14 14 13 11 11 10 10 10 10 10 11 11 11 11 11 11 11 11 12 12 12 12 12 12 12 13 13 13 13
13 13 13 13 13 13 13 14 13 12 11 11 11 12 13 14 14 15 15 15 15 15 14 13 12 12 11 11 11 11 12 12 12 12 12 12 13 13 14 14 13 14 13 13 13 14 14 14 15
14 15 15 16 16 16 15 15 14 14 12 11 11 13 14 14 15 16 16 16 15 15 15 14 13 13 13 13 13 13 13 13 13 13 13 13 13 14 14 14 14 14 14 14 14 15 15 16 16
14 15 16 17 18 18 17 17 17 15 13 11 12 14 15 16 16 16 16 16 16 16 16 16 15 15 15 14 14 14 14 14 15 15 15 14 14 15 15 14 15 14 14 14 15 15 16 17 17
16 16 16 18 19 20 20 20 18 16 12 12 12 13 14 15 15 16 17 18 17 17 17 17 16 15 15 15 15 15 16 16 16 16 16 15 15 15 15 15 16 16 15 15 16 16 16 17 18
17 17 18 19 21 22 22 21 18 15 13 13 13 13 13 14 16 17 18 18 18 18 18 18 17 17 17 16 16 17 17 17 17 17 16 16 16 15 15 16 16 16 17 17 17 17 18 18 19
19 19 20 21 21 22 24 22 19 16 14 14 14 14 14 16 17 18 19 19 19 19 19 18 18 18 17 17 17 18 18 18 18 18 17 17 17 17 16 16 17 17 17 17 17 18 19 19 19
Wind_Direction
90 83 75 70 64 61 57 55 54 58 51 53 55 56 56 58 57 58 57 60 64 62 58 58 64 70 78 82 86 88 89 99 99 97 97 104 119 128 137 151 155 157 164 175 186 175 161 150 147
87 80 73 71 63 57 55 54 53 56 54 53 52 51 53 58 59 60 60 61 64 64 60 59 59 59 61 66 75 85 90 101 102 102 100 107 111 118 119 130 137 133 125 144 155 169 174 169 167
84 80 75 67 62 57 53 52 50 50 50 52 52 53 53 58 58 60 59 59 61 62 60 58 58 53 53 59 69 81 94 108 106 104 97 106 103 101 103 111 108 112 132 149 159 173 178 179 191
82 84 77 66 62 57 52 50 50 45 47 51 52 53 53 57 59 58 57 59 60 60 57 56 54 52 54 58 61 70 79 94 101 99 97 100 98 102 102 106 102 95 118 184 213 186 171 172 179
77 77 75 71 62 56 49 48 48 43 41 46 49 49 49 54 56 55 56 58 58 57 54 54 51 50 51 56 60 65 71 83 96 95 92 92 94 107 107 107 94 57 67 191 190 186 181 177 188
76 70 67 66 59 54 47 45 43 40 40 43 45 44 47 50 50 50 52 54 53 53 51 53 50 54 56 59 63 71 66 70 78 86 88 92 97 109 97 83 67 72 79 109 143 156 176 186 184
73 67 67 62 56 52 46 44 42 40 38 39 41 41 43 46 46 44 46 46 46 47 49 52 55 55 56 59 58 59 61 65 65 64 74 91 103 105 76 52 55 77 82 99 107 126 162 191 193
67 65 71 68 56 54 51 44 41 40 38 37 38 38 38 41 44 43 43 43 44 43 43 46 50 51 51 55 55 55 54 53 53 54 68 90 98 81 63 28 54 80 73 90 111 124 140 175 192
72 67 68 65 58 55 51 41 37 38 35 34 35 36 35 36 39 41 42 41 39 42 43 42 48 49 53 53 52 44 41 42 38 51 68 76 85 82 89 40 66 64 76 76 63 331 237 203 221
70 63 60 59 54 54 51 41 35 35 32 30 32 35 35 35 36 37 37 34 30 35 39 41 45 50 53 50 47 42 38 35 37 51 63 72 72 87 49 27 35 64 76 58 16 341 280 291 273
72 61 59 62 57 50 48 43 36 34 31 29 32 35 34 34 33 33 33 32 32 31 33 35 42 45 45 46 43 41 35 30 33 44 41 58 73 76 11 3 1 36 68 51 23 345 306 293 305
77 70 62 63 57 43 43 42 36 31 28 30 33 33 33 34 32 31 29 30 35 33 31 31 36 42 42 42 41 40 34 30 28 37 37 29 26 2 336 356 359 23 24 11 4 347 330 311 307
77 76 68 60 56 49 40 35 33 26 23 29 33 33 34 32 30 27 26 28 31 30 30 30 35 36 38 35 35 35 35 33 36 44 39 20 10 9 3 15 340 9 18 8 322 315 328 317 311
75 80 76 65 53 44 38 33 30 27 24 27 29 30 29 29 28 26 25 27 29 27 28 30 29 30 29 30 28 28 26 27 35 39 36 22 7 11 13 346 320 319 325 324 323 317 318 300 300
76 72 74 61 46 39 32 24 22 23 21 22 25 27 27 27 26 26 25 24 25 21 20 21 22 21 19 19 16 14 14 20 28 28 24 13 347 332 326 321 312 304 308 308 302 298 301 298 296
83 56 48 51 50 36 26 19 15 18 20 23 23 24 26 26 23 21 21 17 16 14 13 12 13 12 11 10 7 5 1 5 11 7 358 344 321 301 292 286 289 288 289 296 294 292 292 294 293
37 44 54 54 53 31 23 16 8 6 20 22 22 22 22 21 19 15 14 11 7 7 7 6 8 9 9 7 1 357 357 351 346 348 347 342 327 305 287 285 287 284 282 280 281 282 284 286 286
32 29 39 43 38 19 10 5 359 6 14 18 19 20 17 15 15 10 9 8 6 3 0 359 -0 360 358 359 1 0 354 346 334 330 324 326 322 310 297 295 293 288 280 277 275 275 280 283 282
322 327 330 339 346 349 352 349 349 357 9 12 11 13 12 9 9 9 7 3 1 358 354 355 352 348 347 346 351 349 341 334 325 317 308 302 296 295 289 290 289 288 287 284 281 277 278 279 282
286 310 305 318 321 322 331 332 327 338 352 3 4 6 6 5 4 2 2 355 352 348 348 345 344 339 339 340 339 339 336 332 324 319 313 305 301 295 291 290 289 285 282 282 283 281 278 275 279
256 277 281 299 309 306 320 321 317 325 340 352 355 356 356 355 354 353 353 351 344 340 339 338 336 329 327 330 332 331 329 325 322 319 311 306 302 298 294 289 290 288 286 285 282 284 284 282 282
252 265 273 275 284 296 301 300 304 315 332 339 343 347 348 348 348 348 347 346 339 335 333 333 332 325 319 318 322 320 320 319 317 316 311 308 300 296 297 294 291 289 291 289 286 284 285 283 283
255 261 264 262 272 279 286 288 289 299 312 324 335 338 339 340 344 348 348 345 339 334 332 329 329 325 319 317 315 314 314 311 310 309 306 304 301 301 299 294 293 291 292 293 290 286 287 284 282
256 252 253 259 269 270 278 282 292 295 297 311 321 325 330 336 340 343 341 338 336 333 332 328 325 323 319 317 314 311 310 307 304 302 302 301 297 296 297 294 289 287 288 289 290 286 286 288 285
248 248 249 254 259 268 276 281 292 300 296 302 309 315 325 332 335 336 336 334 331 328 326 323 319 318 314 310 307 306 304 302 301 299 298 297 296 295 293 291 288 285 284 285 287 287 286 291 288
245 244 247 255 259 267 271 277 288 296 292 299 307 309 316 322 325 326 327 326 326 325 323 319 316 314 311 307 303 301 302 300 299 299 297 297 296 295 294 292 290 285 281 282 283 284 285 288 288
244 243 247 256 261 264 269 276 279 287 284 290 300 305 311 317 320 321 320 321 320 319 318 316 313 309 305 303 300 295 296 298 299 297 295 295 295 294 292 290 287 287 283 282 283 283 284 285 285
247 247 248 252 259 264 270 275 278 276 283 288 295 305 309 311 314 315 315 316 316 316 316 314 311 307 303 301 300 297 294 295 297 297 294 293 295 293 290 287 286 287 285 284 285 285 284 285 284
251 250 252 255 258 264 268 272 276 278 284 285 296 303 306 306 308 311 311 312 314 314 313 313 311 308 304 298 296 294 291 292 294 295 295 293 292 290 288 287 286 286 284 282 282 283 283 283 283
254 256 254 257 260 261 265 270 274 276 281 285 289 294 300 304 305 306 308 310 311 312 312 310 308 306 304 300 297 294 291 290 291 292 293 291 291 292 289 287 285 285 284 284 281 281 282 283 282
Height
5901 5901 5901 5901 5900 5899 5898 5898 5897 5896 5896 5895 5894 5894 5893 5893 5893 5894 5892 5890 5889 5889 5888 5887 5887 5887 5887 5886 5886 5887 5887 5887 5887 5887 5887 5887 5887 5887 5887 5887 5887 5888 5888 5888 5888 5888 5888 5888 5888
5903 5902 5903 5903 5901 5901 5901 5899 5899 5898 5897 5896 5895 5895 5895 5894 5893 5893 5892 5891 5890 5890 5889 5889 5888 5888 5888 5888 5887 5887 5888 5888 5888 5888 5888 5888 5888 5888 5888 5888 5888 5888 5888 5888 5888 5888 5888 5888 5888
5904 5904 5905 5903 5902 5902 5902 5901 5900 5899 5898 5898 5897 5897 5896 5896 5895 5894 5893 5892 5891 5891 5890 5890 5890 5889 5889 5889 5888 5888 5888 5888 5888 5888 5889 5889 5888 5888 5888 5888 5888 5888 5888 5888 5888 5888 5888 5888 5888
5906 5906 5906 5904 5903 5904 5903 5903 5902 5901 5900 5899 5899 5898 5897 5897 5896 5895 5894 5893 5893 5892 5892 5891 5891 5890 5890 5890 5889 5889 5889 5889 5889 5889 5889 5889 5889 5889 5889 5888 5888 5888 5888 5888 5888 5887 5887 5887 5887
5907 5907 5906 5905 5904 5905 5904 5904 5904 5903 5902 5901 5900 5899 5898 5898 5896 5895 5895 5894 5894 5893 5893 5892 5892 5891 5891 5890 5890 5890 5890 5890 5890 5890 5890 5890 5890 5890 5889 5889 5889 5888 5888 5888 5887 5887 5887 5887 5887
5910 5908 5907 5906 5906 5906 5906 5906 5905 5905 5904 5903 5902 5901 5900 5898 5897 5897 5896 5896 5895 5895 5894 5893 5893 5891 5891 5891 5891 5891 5891 5891 5891 5890 5890 5890 5890 5890 5890 5890 5889 5889 5888 5888 5887 5887 5887 5887 5887
5912 5910 5909 5909 5909 5909 5909 5907 5907 5906 5905 5904 5903 5902 5901 5900 5899 5898 5897 5897 5896 5896 5895 5895 5894 5893 5892 5892 5892 5892 5892 5892 5891 5891 5891 5891 5891 5891 5890 5890 5890 5889 5889 5888 5888 5887 5887 5887 5887
5913 5913 5911 5911 5911 5911 5911 5909 5908 5908 5906 5905 5904 5903 5902 5902 5900 5899 5898 5898 5897 5896 5896 5895 5895 5894 5893 5893 5892 5892 5892 5892 5892 5892 5891 5891 5891 5891 5891 5890 5890 5889 5889 5888 5888 5888 5887 5887 5887
5915 5915 5912 5913 5913 5913 5912 5911 5910 5909 5908 5906 5905 5905 5904 5903 5901 5900 5899 5899 5898 5897 5896 5896 5895 5895 5894 5893 5893 5893 5892 5892 5892 5892 5892 5891 5891 5891 5891 5891 5890 5890 5889 5889 5888 5888 5887 5887 5887
5916 5915 5915 5915 5915 5914 5913 5913 5912 5910 5909 5908 5907 5906 5905 5903 5902 5901 5900 5900 5899 5898 5897 5896 5895 5895 5894 5894 5893 5893 5893 5892 5892 5892 5892 5891 5891 5891 5891 5890 5890 5890 5889 5889 5888 5888 5887 5887 5887
5917 5917 5916 5916 5916 5915 5914 5914 5913 5912 5911 5910 5908 5907 5905 5904 5903 5902 5902 5901 5899 5898 5897 5896 5895 5895 5894 5894 5893 5893 5893 5892 5892 5892 5891 5891 5891 5891 5891 5890 5890 5889 5889 5889 5889 5888 5887 5887 5887
5918 5918 5918 5917 5917 5916 5915 5915 5914 5913 5913 5911 5909 5908 5906 5905 5904 5903 5902 5901 5900 5899 5898 5896 5896 5895 5894 5894 5894 5893 5892 5892 5891 5891 5891 5891 5891 5891 5891 5890 5890 5889 5889 5889 5888 5888 5888 5887 5887
5919 5919 5918 5918 5918 5917 5917 5916 5916 5914 5913 5912 5910 5908 5907 5905 5904 5903 5902 5901 5900 5899 5898 5897 5896 5895 5895 5894 5894 5893 5892 5892 5891 5891 5891 5891 5891 5890 5890 5890 5889 5889 5889 5888 5888 5888 5887 5887 5886
5921 5920 5920 5919 5919 5919 5918 5918 5917 5916 5914 5913 5911 5910 5908 5906 5905 5904 5903 5901 5900 5899 5898 5897 5896 5895 5895 5894 5893 5893 5892 5892 5891 5891 5891 5890 5890 5890 5890 5889 5889 5889 5888 5888 5888 5887 5887 5886 5886
5922 5922 5922 5921 5920 5920 5920 5919 5918 5917 5915 5914 5912 5911 5909 5907 5906 5904 5903 5902 5900 5899 5898 5897 5896 5895 5895 5894 5893 5892 5892 5891 5891 5891 5890 5890 5889 5889 5889 5889 5888 5888 5887 5887 5887 5886 5886 5886 5885
5923 5923 5922 5922 5921 5921 5922 5920 5918 5917 5916 5914 5913 5911 5910 5908 5907 5905 5903 5902 5901 5899 5898 5897 5896 5895 5894 5893 5893 5892 5891 5890 5890 5890 5889 5889 5888 5888 5888 5887 5887 5887 5886 5886 5885 5885 5885 5885 5884
5923 5923 5922 5922 5922 5921 5921 5920 5919 5917 5915 5915 5913 5912 5910 5909 5907 5905 5903 5902 5901 5899 5898 5897 5896 5894 5893 5893 5892 5891 5890 5890 5889 5889 5888 5888 5887 5887 5886 5886 5885 5885 5885 5884 5884 5884 5883 5883 5882
5923 5922 5922 5922 5922 5921 5921 5920 5919 5918 5916 5915 5914 5912 5910 5909 5907 5905 5904 5902 5901 5899 5898 5896 5895 5894 5893 5892 5891 5890 5889 5889 5888 5887 5887 5886 5886 5885 5885 5884 5884 5883 5883 5883 5882 5882 5882 5881 5881
5922 5922 5922 5922 5921 5921 5920 5919 5919 5917 5916 5915 5914 5912 5910 5909 5907 5905 5903 5902 5900 5898 5897 5895 5894 5893 5892 5891 5890 5889 5888 5887 5887 5886 5885 5884 5884 5883 5883 5882 5882 5882 5881 5881 5880 5880 5879 5879 5878
5921 5921 5921 5921 5920 5919 5919 5918 5917 5916 5915 5914 5913 5911 5910 5908 5907 5905 5903 5900 5898 5897 5895 5895 5893 5892 5891 5890 5889 5888 5887 5886 5885 5884 5883 5882 5881 5881 5881 5880 5879 5879 5879 5878 5878 5877 5877 5876 5875
5920 5920 5920 5920 5919 5918 5917 5917 5916 5915 5914 5913 5912 5910 5909 5907 5906 5904 5902 5900 5898 5896 5895 5894 5892 5890 5889 5888 5887 5886 5885 5884 5883 5882 5881 5880 5879 5879 5878 5877 5877 5876 5876 5875 5875 5874 5874 5873 5872
5918 5918 5918 5918 5918 5917 5917 5916 5914 5913 5912 5911 5910 5909 5907 5906 5904 5903 5901 5898 5896 5895 5893 5891 5890 5888 5887 5886 5885 5884 5883 5882 5881 5880 5878 5877 5877 5876 5875 5874 5874 5873 5872 5872 5872 5871 5870 5870 5869
5916 5915 5916 5916 5915 5915 5914 5914 5914 5912 5911 5910 5908 5908 5906 5904 5903 5901 5899 5897 5895 5893 5891 5889 5888 5886 5885 5884 5883 5882 5880 5879 5878 5877 5876 5875 5874 5873 5872 5871 5871 5870 5869 5868 5868 5867 5867 5866 5865
5913 5913 5913 5913 5913 5912 5912 5912 5911 5910 5909 5908 5907 5906 5905 5903 5901 5899 5897 5895 5893 5891 5889 5887 5886 5884 5882 5881 5880 5879 5877 5876 5875 5874 5873 5872 5871 5870 5869 5868 5867 5866 5865 5864 5864 5863 5863 5862 5861
5911 5911 5911 5910 5910 5909 5909 5908 5909 5907 5906 5906 5904 5903 5902 5901 5899 5897 5895 5893 5891 5888 5886 5885 5883 5881 5880 5878 5876 5875 5874 5873 5872 5871 5869 5868 5867 5866 5865 5864 5863 5862 5861 5860 5860 5859 5859 5858 5856
5906 5907 5908 5908 5907 5906 5905 5904 5906 5904 5903 5902 5901 5900 5899 5898 5896 5894 5892 5890 5888 5886 5884 5882 5880 5878 5876 5875 5873 5872 5871 5870 5868 5867 5865 5864 5863 5862 5861 5860 5859 5858 5857 5856 5855 5855 5854 5853 5852
5903 5903 5904 5903 5902 5902 5901 5901 5901 5900 5900 5899 5898 5897 5896 5895 5893 5891 5889 5887 5885 5883 5880 5878 5876 5875 5873 5871 5869 5868 5867 5866 5865 5863 5862 5860 5859 5858 5857 5855 5854 5854 5853 5852 5851 5850 5849 5848 5847
5898 5899 5900 5899 5898 5897 5897 5897 5897 5897 5897 5896 5895 5894 5892 5891 5890 5888 5886 5883 5881 5879 5876 5874 5872 5870 5869 5867 5865 5864 5863 5862 5860 5859 5857 5856 5855 5853 5852 5851 5850 5849 5848 5847 5846 5845 5844 5843 5842
5894 5894 5894 5894 5894 5893 5892 5894 5893 5893 5893 5893 5892 5890 5889 5887 5886 5885 5883 5880 5878 5875 5873 5870 5868 5866 5865 5863 5861 5860 5858 5857 5856 5854 5853 5851 5850 5849 5847 5846 5845 5844 5842 5841 5840 5839 5838 5837 5836
5888 5888 5889 5889 5889 5888 5887 5890 5888 5888 5888 5888 5887 5886 5884 5883 5882 5880 5878 5876 5873 5871 5869 5866 5864 5862 5860 5858 5857 5855 5853 5852 5851 5849 5848 5846 5845 5844 5842 5840 5839 5838 5837 5836 5835 5834 5833 5831 5830